Total_Precipitation_Accumulation
0.00 0.00 0.01 0.02 0.02 0.03 0.06 0.11 0.18 0.20 0.19 0.28 0.44 0.69 0.82 0.80 0.86 1.01 1.14 1.34 1.38 1.42 1.68 2.16 2.81 3.47 4.25 5.37 6.02 6.14 5.84 5.12 4.57 4.14 3.88 3.57 3.27 2.98 2.51 2.11 1.85 1.72 1.63 1.56
0.01 0.02 0.02 0.02 0.02 0.03 0.06 0.11 0.19 0.18 0.16 0.19 0.41 0.76 0.87 0.91 0.96 0.97 1.05 1.13 1.05 1.20 1.54 2.15 2.93 3.74 4.39 4.95 5.30 5.36 4.96 4.19 3.69 3.40 3.30 3.01 2.77 2.42 2.20 1.95 1.90 1.65 1.56 1.54
0.02 0.04 0.02 0.02 0.03 0.05 0.09 0.10 0.16 0.19 0.17 0.19 0.41 0.91 1.11 1.02 1.00 1.00 0.90 0.88 0.97 1.17 1.72 2.50 3.32 4.07 4.41 4.42 4.19 3.89 3.70 3.29 3.15 3.07 2.87 2.62 2.56 2.27 2.07 1.86 1.75 1.49 1.31 1.27
0.02 0.03 0.03 0.03 0.05 0.06 0.10 0.08 0.06 0.09 0.15 0.36 0.49 1.00 1.17 1.17 1.11 0.97 0.93 0.95 1.07 1.34 1.87 2.59 3.13 3.37 3.52 3.44 3.14 2.93 2.85 2.76 2.70 2.59 2.45 2.14 2.00 1.94 1.77 1.67 1.66 1.54 1.36 1.28
0.03 0.03 0.04 0.04 0.05 0.05 0.06 0.05 0.05 0.09 0.20 0.37 0.52 0.85 1.21 1.20 1.27 0.85 0.71 0.82 0.92 1.13 1.44 1.67 1.88 2.03 2.16 2.19 2.33 2.37 2.45 2.58 2.48 2.42 2.39 2.28 2.01 1.93 1.87 1.86 1.93 1.80 1.62 1.41
0.03 0.03 0.03 0.04 0.04 0.05 0.05 0.07 0.13 0.22 0.38 0.74 0.74 0.86 1.22 1.22 1.10 0.68 0.48 0.54 0.73 0.82 0.89 1.00 1.09 1.21 1.44 1.49 1.68 1.85 1.92 2.09 2.23 2.22 2.12 2.05 1.97 1.99 1.99 1.93 1.77 1.58 1.46 1.38
0.09 0.08 0.06 0.07 0.06 0.06 0.06 0.11 0.33 0.66 1.00 1.07 0.65 0.75 1.15 1.07 0.76 0.48 0.41 0.40 0.41 0.55 0.71 0.85 0.98 1.09 1.27 1.20 1.26 1.45 1.53 1.56 1.71 1.74 1.70 1.75 1.86 1.92 1.79 1.69 1.61 1.45 1.23 1.20
0.15 0.15 0.10 0.07 0.08 0.08 0.07 0.08 0.20 0.38 0.49 0.66 0.69 1.19 1.40 0.82 0.53 0.39 0.35 0.31 0.31 0.44 0.62 0.72 0.72 0.80 0.92 0.88 0.95 1.08 1.22 1.31 1.36 1.45 1.50 1.50 1.62 1.63 1.58 1.64 1.55 1.40 1.19 1.09
0.06 0.09 0.08 0.07 0.09 0.09 0.07 0.06 0.08 0.11 0.19 0.49 0.88 1.22 1.18 0.72 0.55 0.37 0.33 0.32 0.31 0.35 0.50 0.56 0.50 0.50 0.62 0.72 0.78 0.85 1.04 1.18 1.19 1.31 1.38 1.34 1.41 1.50 1.56 1.58 1.49 1.31 1.31 1.17
0.04 0.04 0.06 0.06 0.08 0.09 0.08 0.08 0.09 0.12 0.20 0.42 0.78 1.26 1.50 1.10 0.62 0.44 0.42 0.42 0.40 0.36 0.41 0.44 0.43 0.39 0.45 0.58 0.75 0.85 0.98 1.10 1.13 1.23 1.23 1.09 1.24 1.36 1.50 1.48 1.40 1.36 1.38 1.30
0.04 0.03 0.06 0.07 0.08 0.10 0.10 0.10 0.12 0.14 0.15 0.25 0.60 0.92 0.81 0.79 0.60 0.57 0.56 0.50 0.47 0.41 0.45 0.43 0.37 0.37 0.36 0.45 0.65 0.78 0.92 1.04 1.10 1.17 1.25 1.28 1.29 1.24 1.36 1.39 1.36 1.38 1.41 1.33
0.03 0.03 0.05 0.09 0.11 0.11 0.12 0.13 0.13 0.15 0.14 0.15 0.30 0.50 0.49 0.66 0.64 0.62 0.65 0.62 0.58 0.42 0.37 0.39 0.43 0.47 0.43 0.44 0.55 0.68 0.84 0.99 1.05 1.12 1.24 1.33 1.46 1.42 1.37 1.36 1.39 1.41 1.49 1.52
0.03 0.04 0.07 0.16 0.23 0.18 0.12 0.11 0.13 0.13 0.11 0.12 0.30 0.48 0.46 0.53 0.57 0.53 0.64 0.65 0.57 0.52 0.48 0.47 0.51 0.56 0.57 0.54 0.56 0.68 0.82 0.98 1.10 1.18 1.26 1.40 1.48 1.39 1.34 1.45 1.52 1.53 1.66 1.77
0.04 0.04 0.06 0.16 0.26 0.29 0.20 0.14 0.13 0.11 0.10 0.11 0.19 0.42 0.48 0.54 0.54 0.59 0.65 0.66 0.66 0.65 0.55 0.49 0.45 0.48 0.58 0.72 0.76 0.83 1.07 1.08 1.09 1.26 1.40 1.46 1.48 1.45 1.44 1.52 1.60 1.61 1.68 1.83
0.04 0.04 0.04 0.05 0.09 0.15 0.20 0.17 0.14 0.10 0.08 0.10 0.18 0.34 0.45 0.56 0.65 0.67 0.67 0.62 0.58 0.57 0.52 0.44 0.41 0.44 0.55 0.69 0.77 0.88 0.95 1.13 1.19 1.37 1.52 1.56 1.65 1.69 1.72 1.81 1.81 1.74 1.73 1.77
0.07 0.06 0.04 0.04 0.07 0.11 0.14 0.17 0.12 0.09 0.08 0.08 0.17 0.38 0.48 0.50 0.58 0.68 0.65 0.64 0.61 0.53 0.51 0.53 0.55 0.57 0.60 0.65 0.72 0.79 0.84 1.03 1.24 1.50 1.81 1.86 1.92 1.93 1.99 2.14 2.21 2.13 2.10 2.20
0.13 0.10 0.08 0.07 0.10 0.12 0.16 0.16 0.13 0.14 0.13 0.15 0.23 0.36 0.43 0.50 0.61 0.81 0.79 0.73 0.73 0.68 0.66 0.71 0.80 0.79 0.75 0.75 0.79 0.85 0.93 1.10 1.39 1.68 1.93 2.09 2.16 2.18 2.23 2.32 2.34 2.30 2.41 2.59
0.20 0.19 0.16 0.12 0.16 0.22 0.20 0.20 0.18 0.19 0.23 0.28 0.37 0.40 0.54 0.73 0.84 1.01 1.04 0.90 0.86 0.78 0.73 0.78 0.91 0.95 0.92 0.93 1.01 1.13 1.29 1.50 1.77 1.97 2.11 2.20 2.19 2.19 2.22 2.29 2.24 2.28 2.42 2.50
0.21 0.25 0.26 0.23 0.25 0.25 0.27 0.30 0.31 0.35 0.48 0.50 0.59 0.66 0.77 0.88 0.86 0.93 0.88 0.78 0.75 0.72 0.78 0.84 0.94 1.05 1.13 1.17 1.28 1.36 1.47 1.65 1.86 1.99 2.00 1.98 2.06 2.15 2.20 2.23 2.28 2.31 2.30 2.19
0.31 0.31 0.40 0.36 0.38 0.41 0.44 0.46 0.42 0.49 0.93 0.95 0.93 0.88 0.85 0.92 1.12 1.09 0.87 0.79 0.78 0.76 0.78 0.90 0.93 1.01 1.13 1.23 1.27 1.37 1.52 1.69 1.87 1.98 1.97 1.93 2.02 2.09 2.15 2.20 2.26 2.21 2.14 2.08
0.51 0.54 0.51 0.50 0.54 0.50 0.49 0.44 0.43 0.76 1.10 1.05 1.05 1.09 1.02 1.10 1.18 1.13 0.96 0.93 0.88 0.86 0.86 0.89 0.97 1.04 1.08 1.18 1.26 1.36 1.49 1.59 1.68 1.74 1.81 1.91 2.04 2.12 2.13 2.17 2.15 2.09 2.00 2.03
0.62 0.66 0.66 0.66 0.82 0.87 0.63 0.53 0.75 1.01 0.91 1.06 1.17 1.17 1.15 1.08 1.01 1.03 1.02 1.02 0.96 0.91 0.93 0.97 1.05 1.18 1.25 1.30 1.32 1.40 1.39 1.45 1.56 1.57 1.63 1.67 1.76 1.86 1.87 1.94 1.91 1.92 1.90 1.88
0.79 0.79 0.82 0.92 1.04 0.88 0.74 0.76 0.84 0.90 0.97 1.06 1.16 1.20 1.16 1.18 1.15 1.02 0.98 0.96 1.10 1.16 1.13 1.10 1.08 1.15 1.24 1.34 1.43 1.49 1.45 1.40 1.41 1.45 1.52 1.56 1.56 1.68 1.77 1.84 1.80 1.77 1.74 1.69
0.97 0.80 0.89 1.14 1.21 1.06 0.97 0.92 0.86 0.85 0.90 0.96 1.10 1.21 1.28 1.25 1.11 1.02 0.95 0.90 0.91 0.96 0.97 1.02 1.03 1.09 1.27 1.27 1.33 1.42 1.47 1.44 1.44 1.49 1.48 1.51 1.54 1.61 1.81 1.89 1.77 1.66 1.58 1.51
1.07 1.08 1.11 1.31 1.36 1.17 1.06 0.99 1.04 1.01 0.96 0.94 1.03 1.11 1.12 1.06 1.03 1.01 0.94 0.86 0.86 0.84 0.82 0.82 0.87 0.92 1.01 1.04 1.08 1.16 1.25 1.30 1.26 1.23 1.19 1.16 1.23 1.37 1.56 1.67 1.64 1.50 1.43 1.48
1.00 1.20 1.34 1.44 1.29 1.30 1.32 1.21 1.19 1.24 1.24 1.20 1.16 1.15 1.07 0.97 0.92 0.89 0.82 0.78 0.76 0.72 0.68 0.72 0.74 0.76 0.80 0.86 0.94 1.04 1.18 1.27 1.25 1.16 1.10 1.09 1.10 1.19 1.38 1.58 1.66 1.53 1.33 1.37